Location: The Saddle
(36.8333°N, 80.3417°W)
Time: 23:36:17
(UTC-04:00)

A-11 Canister half - Visible Passes

Search period start: 27 May 2024 00:00
Search period end: 06 June 2024 00:00
Orbit: 1514 x 1685 km, 47.2° (Epoch: 27 May)

Date Brightness Start Highest point End Pass type
(mag) Time Alt. Az. Time Alt. Az. Time Alt. Az.
27 May 8.9 01:14:25 61° SE 01:14:31 61° SE 01:23:45 10° ENE visible
27 May 9.4 03:12:32 20° W 03:19:36 59° NNW 03:28:48 10° ENE visible
27 May 10.0 05:17:05 10° WNW 05:26:00 44° N 05:34:46 10° ENE visible
28 May 9.0 00:51:45 57° SE 00:51:45 57° SE 01:00:45 10° ENE visible
28 May 9.3 02:49:51 22° W 02:56:34 61° NNW 03:05:49 10° ENE visible
28 May 10.0 04:53:59 10° WNW 05:02:56 44° N 05:11:42 10° ENE visible
29 May 9.0 00:28:53 54° SE 00:28:53 54° SE 00:37:45 10° ENE visible
29 May 9.3 02:26:58 23° W 02:33:32 63° NNW 02:42:50 10° ENE visible
29 May 9.9 04:30:53 10° WNW 04:39:51 44° N 04:48:38 10° ENE visible
30 May 9.1 00:05:43 51° SE 00:05:43 51° SE 00:14:44 10° ENE visible
30 May 9.2 02:03:46 22° WSW 02:10:30 66° NNW 02:19:51 10° ENE visible
30 May 9.9 04:07:46 10° WNW 04:16:47 44° N 04:25:34 10° ENE visible
30 May 9.1 23:41:59 47° SSE 23:42:43 48° SE 23:51:42 10° ENE visible
31 May 9.2 01:39:58 19° WSW 01:47:29 69° NNW 01:56:53 10° ENE visible
31 May 9.9 03:44:40 10° WNW 03:53:42 45° N 04:02:31 10° ENE visible
31 May 9.2 23:16:28 35° S 23:19:46 45° SE 23:28:40 10° ENE visible
01 Jun 9.1 01:14:40 10° WSW 01:24:27 71° NNW 01:33:54 10° ENE visible
01 Jun 9.9 03:21:33 10° WNW 03:30:38 45° N 03:39:28 10° ENE visible
01 Jun 9.7 05:27:48 10° WNW 05:37:03 58° NNE 05:46:08 10° E visible
01 Jun 9.3 22:47:45 10° SSW 22:56:50 42° SE 23:05:37 10° ENE visible
02 Jun 9.1 00:51:35 10° WSW 01:01:26 74° NNW 01:10:56 10° ENE visible
02 Jun 9.9 02:58:25 10° WNW 03:07:33 45° N 03:16:25 10° ENE visible
02 Jun 9.7 05:04:46 10° WNW 05:14:01 56° NNE 05:23:05 10° E visible
02 Jun 9.4 22:24:57 10° SSW 22:33:54 39° SE 22:42:34 10° ENE visible
03 Jun 9.1 00:28:32 10° WSW 00:38:24 77° NNW 00:47:57 10° ENE visible
03 Jun 9.9 02:35:17 10° WNW 02:44:28 46° N 02:53:22 10° ENE visible
03 Jun 9.7 04:41:43 10° WNW 04:50:59 54° NNE 05:00:01 10° E visible
03 Jun 9.4 22:02:11 10° SSW 22:10:57 36° SE 22:19:29 10° ENE visible
04 Jun 9.0 00:05:28 10° WSW 00:15:24 81° NNW 00:24:59 10° ENE visible
04 Jun 9.9 02:12:09 10° W 02:21:23 46° N 02:30:21 10° ENE visible
04 Jun 9.7 04:18:42 10° WNW 04:27:56 53° NNE 04:36:57 10° E visible
04 Jun 9.5 21:39:25 10° S 21:48:02 34° SE 21:56:24 10° ENE visible
04 Jun 9.0 23:42:25 10° WSW 23:52:23 84° NNW 00:02:00 10° ENE visible
05 Jun 9.8 01:49:00 10° W 01:58:19 47° N 02:07:19 10° ENE visible
05 Jun 9.8 03:55:39 10° WNW 04:04:53 52° NNE 04:13:52 10° E visible
05 Jun 9.6 21:16:40 10° S 21:25:06 32° SE 21:33:17 10° ENE visible
05 Jun 9.0 23:19:22 10° SW 23:29:23 88° NNW 23:39:01 10° ENE visible
